[[{"header":{"parameterUnit":"m.s-1","parameterCategory":1,"la1":30.2991,"la2":30.254,"lo1":-89.0895,"lo2":-89.0444,"dy":0.0017,"dx":0.0017,"nx":28,"ny":28,"refTime":"2024-06-26T21:00:00:Z","depth":0,"parameterNumber":2,"parameterNumberName":"U-component_of_WINDS"},"data":[0,0,0,0,0,0,0,0,0,0,0,0,0,0,0,0,0,0,0,0,0,0,0,0,0,0,0,0,0,0,0,0,0,0,0,0,0,0,0,0,0,0,0,0,0,0,0,0,0,0,0,0,0,0,0,0,0,0,4.5313,4.5315,0,4.5464,4.5465,4.5467,4.5428,4.5425,4.5422,4.5419,4.5577,4.5583,4.559,0,0,0,0,0,0,0,0,0,0,0,0,0,4.4993,4.4999,4.5313,4.5315,4.5317,4.5463,4.5465,4.5468,4.5429,4.5425,4.5421,4.5418,4.5574,4.5583,4.5591,0,0,0,0,0,0,0,0,0,0,0,0,0,4.5137,4.5001,4.5313,4.5315,4.5317,4.5463,4.5466,4.5468,4.5429,4.5425,4.542,4.5416,4.5572,4.5582,4.5592,4.5746,0,0,4.5624,4.5629,0,0,0,0,0,0,0,0,4.5129,4.5149,4.5313,4.5315,4.5317,4.5422,4.541,4.5562,4.5431,4.5387,4.5419,4.5414,4.5529,4.5543,4.5581,4.5754,4.576,4.5625,4.5631,4.5636,4.5639,0,0,0,0,0,0,0,4.5119,4.5142,4.5373,4.5315,4.5318,4.5309,4.5324,4.5439,4.5481,4.539,4.5388,4.5406,4.553,4.5571,4.5584,4.5763,4.5625,4.5634,4.564,4.5645,4.6069,4.6073,0,0,0,0,0,0,4.5107,4.5134,4.5368,4.5377,4.521,4.5318,4.5336,4.5393,4.548,4.5489,4.541,4.5404,4.5555,4.5572,4.559,4.5776,4.5636,4.5646,4.5652,4.6064,4.607,4.6075,0,0,0,0,0,0,4.51,4.5128,4.5362,4.5255,4.5284,4.5329,4.5394,4.5399,4.544,4.5495,4.5502,4.5444,4.5553,4.5575,4.5707,4.5781,4.565,4.566,4.6058,4.6066,4.6073,4.615,0,0,0,0,0,0,4.5091,4.5126,4.5185,4.5257,4.529,4.5477,4.5398,4.5405,4.5458,4.5451,4.5529,4.5538,4.5551,4.5692,4.5718,4.5793,4.5668,4.6052,4.6061,4.607,4.6141,4.6159,4.6174,0,0,0,0,0,4.508,4.5201,4.5188,4.5217,4.5364,4.5481,4.55,4.5512,4.5464,4.5524,4.5558,4.5535,4.5768,4.5706,4.5735,4.5814,4.6047,4.6059,4.6069,4.6133,4.6155,4.6174,0,0,0,0,0,0,4.5139,4.5211,4.5197,4.5345,4.5407,4.5474,4.555,4.5535,4.5613,4.5604,4.5616,4.5634,4.5769,4.5804,4.5733,4.5967,4.5901,4.5918,4.5939,4.5961,4.5977,4.5966,4.5677,0,0,0,0,0,4.5169,4.5257,4.5315,4.544,4.5472,4.5505,4.5557,4.556,4.5625,4.5652,4.5696,4.5761,4.5849,4.5906,4.599,4.6145,4.6161,4.6214,4.623,4.6244,4.6259,4.6344,4.6368,4.6112,4.6112,4.6112,0,0,4.5232,4.5282,4.5338,4.5453,4.5502,4.5593,4.5528,4.5628,4.5696,4.5667,4.5795,4.5829,4.5902,4.6046,4.6112,4.608,4.6333,4.6258,4.6268,4.6277,4.6358,4.6382,4.6403,4.612,4.6118,4.6117,0,0,4.5394,4.5441,4.555,4.5599,4.5673,4.5694,4.572,4.5789,4.5811,4.5938,4.5919,4.6,4.6151,4.6203,4.625,4.643,4.6412,4.6457,4.6545,4.6627,4.6647,4.6665,4.673,4.6753,4.6472,4.6472,4.6472,0,4.5465,4.5601,4.5608,4.571,4.5761,4.5737,4.5848,4.5896,4.5993,4.603,4.5992,4.618,4.6228,4.6384,4.6427,4.6466,4.6496,4.6449,4.6643,4.6662,4.6678,4.674,4.6764,4.6477,4.6476,4.6476,4.6475,0,4.5683,4.5778,4.5857,4.595,4.601,4.6116,4.614,4.62,4.6198,4.6223,4.6353,4.6409,4.6503,4.654,4.6539,4.6696,4.6674,4.664,4.6574,4.6708,4.6766,4.679,4.6484,4.6483,4.6481,4.648,0,0,4.5889,4.5983,4.6012,4.6054,4.6132,4.6206,4.631,4.6401,4.6452,4.652,4.6608,4.6735,4.6703,4.6756,4.6761,4.6833,4.6972,4.679,4.6792,4.6823,4.7148,4.7174,4.7201,4.6959,4.6964,4.6968,4.7142,0,4.6059,4.6241,4.625,4.6416,4.6503,4.6481,4.6572,4.663,4.6656,4.6734,4.6763,4.6853,4.6805,4.6836,4.6906,4.694,4.7038,4.6928,4.7043,4.7047,4.7026,4.7231,4.7259,4.7422,4.7165,4.7169,4.7172,0,4.6282,4.6354,4.6529,4.6593,4.663,4.6711,4.6795,4.6869,4.6935,4.6948,4.7006,4.7001,4.7107,4.7036,4.7184,4.7109,4.7156,4.718,4.7186,4.7198,4.7118,4.725,4.7474,4.7498,4.7207,4.7205,4.7202,0,4.6415,4.6556,4.6679,4.6715,4.6793,4.6851,4.6886,4.6946,4.7,4.7073,4.7108,4.7193,4.724,4.7306,4.7323,4.727,4.7471,4.7401,4.7486,4.7486,4.7531,4.7529,4.7766,4.756,4.756,4.7559,4.7559,0,4.6604,4.6712,4.6739,4.6815,4.6935,4.6944,4.7062,4.7094,4.7148,4.7229,4.7215,4.7292,4.731,4.739,4.7404,4.7525,4.7546,4.7561,4.7563,4.7563,4.7561,4.7595,4.7585,4.7566,4.7564,4.7563,4.7562,0,4.6775,4.6797,4.6929,4.6991,4.7009,4.7095,4.7149,4.7221,4.7244,4.7347,4.7372,4.7409,4.7503,4.7526,4.7639,4.7648,4.7791,4.7782,4.7769,4.7769,4.7853,4.7845,4.8122,4.8159,4.7927,4.7929,4.7931,0,4.6895,4.6977,4.7047,4.71,4.7137,4.7223,4.7277,4.7288,4.7345,4.7425,4.7488,4.758,4.7654,4.7805,4.7843,4.7929,4.7923,4.8014,4.7936,4.7932,4.7925,4.792,4.7929,4.8029,4.8032,4.8034,4.8035,0,4.7105,4.7112,4.719,4.7271,4.7336,4.7401,4.7463,4.7507,4.7528,4.7592,4.7687,4.7745,4.7859,4.795,4.8036,4.8073,4.8059,4.8059,4.8083,4.8084,4.8073,4.8081,4.781,4.8053,4.8051,4.805,4.8049,4.8048,4.7255,4.7326,4.7386,4.7473,4.7521,4.7579,4.765,4.768,4.776,4.7852,4.7854,4.7958,4.802,4.8133,4.8175,4.8257,4.823,4.8265,4.8274,4.8283,4.829,4.8059,4.8273,4.8272,4.8272,4.8271,4.8271,0,4.7465,4.7502,4.7582,4.7668,4.7736,4.7714,4.7781,4.784,4.7931,4.7989,4.8062,4.8171,4.8259,4.8303,4.839,4.8447,4.8443,4.847,4.8467,4.8476,4.831,4.828,4.8473,4.8472,4.8472,4.8472,4.8472,4.8472,4.7583,4.7702,4.7716,4.7859,4.7895,4.7995,4.8035,4.8089,4.8135,4.8257,4.833,4.8357,4.841,4.85,4.8581,4.8591,4.8625,4.8656,4.8663,4.8508,4.8487,4.8468,4.844,4.8663,4.8663,4.8822,4.8824,4.8825]},{"header":{"parameterUnit":"m.s-1","parameterCategory":1,"la1":30.2991,"la2":30.254,"lo1":-89.0895,"lo2":-89.0444,"dy":0.0017,"dx":0.0017,"nx":28,"ny":28,"refTime":"2024-06-26T21:00:00:Z","depth":0,"parameterNumber":3,"parameterNumberName":"V-component_of_WINDS"},"data":[0,0,0,0,0,0,0,0,0,0,0,0,0,0,0,0,0,0,0,0,0,0,0,0,0,0,0,0,0,0,0,0,0,0,0,0,0,0,0,0,0,0,0,0,0,0,0,0,0,0,0,0,0,0,0,0,0,0,2.4964,2.4964,0,2.4961,2.4961,2.4961,2.4908,2.4907,2.4906,2.4904,2.4902,2.4904,2.4905,0,0,0,0,0,0,0,0,0,0,0,0,0,2.4924,2.4925,2.4964,2.4964,2.4964,2.4961,2.4961,2.4961,2.4909,2.4907,2.4905,2.4904,2.4902,2.4903,2.4905,0,0,0,0,0,0,0,0,0,0,0,0,0,2.4934,2.4926,2.4964,2.4938,2.4935,2.4961,2.4961,2.4961,2.4909,2.4907,2.4905,2.4903,2.4901,2.4903,2.4905,2.4957,0,0,2.4911,2.4911,0,0,0,0,0,0,0,0,2.4933,2.4935,2.4942,2.494,2.4937,2.4933,2.4946,2.496,2.491,2.4919,2.4904,2.4902,2.4914,2.4915,2.4919,2.4957,2.4957,2.4911,2.4912,2.4913,2.4913,0,0,0,0,0,0,0,2.4933,2.4935,2.4963,2.4942,2.4939,2.4926,2.4925,2.4949,2.4928,2.4918,2.4914,2.4915,2.4913,2.4917,2.4918,2.4956,2.4911,2.4912,2.4913,2.4914,2.5036,2.5038,0,0,0,0,0,0,2.4936,2.4935,2.4963,2.4963,2.493,2.4928,2.4927,2.4936,2.4928,2.4924,2.4916,2.4912,2.4915,2.4916,2.4918,2.4978,2.4913,2.4914,2.4915,2.5033,2.5036,2.5038,0,0,0,0,0,0,2.4935,2.4939,2.4963,2.4948,2.495,2.4931,2.4942,2.4937,2.4942,2.4926,2.4922,2.4925,2.4914,2.4916,2.4947,2.4977,2.4915,2.4917,2.5031,2.5034,2.5037,2.5098,0,0,0,0,0,0,2.4934,2.4939,2.4958,2.4949,2.4951,2.4993,2.4944,2.4939,2.4945,2.494,2.4933,2.493,2.4912,2.4945,2.4949,2.4978,2.4918,2.5028,2.5032,2.5036,2.5093,2.5103,2.5111,0,0,0,0,0,2.4933,2.4976,2.496,2.4963,2.4975,2.4995,2.4996,2.4974,2.4948,2.4967,2.4957,2.4931,2.4973,2.4949,2.4953,2.4983,2.5026,2.5031,2.5036,2.5089,2.5101,2.5111,0,0,0,0,0,0,2.4991,2.4974,2.4956,2.4997,2.4998,2.4986,2.501,2.4987,2.4995,2.499,2.4962,2.4961,2.4997,2.4993,2.4966,2.5032,2.4995,2.5001,2.5034,2.5045,2.5054,2.5054,2.492,0,0,0,0,0,2.5008,2.5025,2.501,2.5048,2.5049,2.5029,2.5037,2.502,2.5019,2.5019,2.5011,2.5012,2.5025,2.5035,2.5046,2.5092,2.509,2.5115,2.5124,2.5131,2.5137,2.516,2.5171,2.5054,2.5054,2.5054,0,0,2.5045,2.5038,2.505,2.5059,2.5058,2.5076,2.503,2.5051,2.5065,2.5023,2.5052,2.5046,2.5045,2.5084,2.51,2.5081,2.5168,2.5137,2.5143,2.5145,2.5166,2.5178,2.5187,2.5057,2.5057,2.5056,0,0,2.5121,2.5117,2.5148,2.5147,2.5144,2.5131,2.5138,2.5129,2.5123,2.5152,2.5121,2.5136,2.516,2.516,2.5163,2.5237,2.5213,2.5241,2.5289,2.5312,2.5321,2.5329,2.5356,2.5366,2.5247,2.5247,2.5247,0,2.5167,2.5193,2.5167,2.519,2.5195,2.5156,2.5187,2.5188,2.5189,2.5193,2.5172,2.52,2.5196,2.5234,2.5252,2.5256,2.5264,2.5243,2.5322,2.533,2.5337,2.5362,2.5372,2.5251,2.525,2.525,2.525,0,2.5249,2.5268,2.5293,2.5295,2.5302,2.5329,2.5307,2.5318,2.5299,2.5288,2.5317,2.5311,2.5321,2.5328,2.5311,2.5364,2.5352,2.5327,2.5289,2.5352,2.5375,2.5385,2.5256,2.5254,2.5253,2.5253,0,0,2.5363,2.5349,2.5359,2.5359,2.5352,2.5366,2.5391,2.5399,2.5409,2.5411,2.5431,2.5451,2.5427,2.5431,2.5413,2.5433,2.5492,2.5405,2.5404,2.5422,2.555,2.557,2.5582,2.5476,2.5477,2.5479,2.555,0,2.5437,2.5479,2.5455,2.55,2.5517,2.548,2.5501,2.55,2.5489,2.5502,2.549,2.5505,2.5472,2.5474,2.5492,2.5481,2.5518,2.5476,2.5495,2.5496,2.5497,2.5594,2.5615,2.5683,2.5559,2.5561,2.5562,0,2.5529,2.5534,2.558,2.557,2.5576,2.5595,2.5601,2.5613,2.561,2.5601,2.5604,2.5581,2.5605,2.5566,2.5598,2.557,2.5576,2.5572,2.5574,2.5576,2.5534,2.5599,2.5705,2.5715,2.5576,2.5575,2.5574,0,2.5608,2.5626,2.5656,2.5657,2.5645,2.566,2.5656,2.5651,2.5657,2.5661,2.5665,2.5673,2.5677,2.5683,2.5662,2.5636,2.5697,2.5657,2.5691,2.5692,2.5707,2.5706,2.5816,2.5709,2.5709,2.5709,2.5709,0,2.5693,2.5723,2.5691,2.571,2.5742,2.5714,2.5747,2.5739,2.5734,2.5751,2.5719,2.5735,2.5706,2.5719,2.5703,2.5732,2.5734,2.5728,2.5723,2.5731,2.5732,2.5736,2.5731,2.5712,2.5711,2.571,2.571,0,2.5787,2.5767,2.5797,2.5783,2.578,2.5805,2.5792,2.5809,2.5796,2.5817,2.582,2.58,2.5813,2.5793,2.5804,2.5793,2.5834,2.5821,2.5835,2.5832,2.5867,2.5864,2.5983,2.5997,2.5881,2.5882,2.5883,0,2.5844,2.5866,2.5853,2.5861,2.5859,2.5873,2.5878,2.5852,2.5859,2.5857,2.5874,2.5884,2.5892,2.5915,2.5902,2.591,2.5898,2.5939,2.59,2.5907,2.59,2.5899,2.5901,2.5948,2.595,2.5951,2.5952,0,2.5945,2.5934,2.5943,2.5949,2.5956,2.596,2.5961,2.5969,2.5941,2.5951,2.5964,2.597,2.5981,2.5992,2.5997,2.5993,2.5968,2.5964,2.5972,2.5981,2.5988,2.5985,2.5858,2.5962,2.5961,2.596,2.5959,2.5959,2.6023,2.604,2.6034,2.6045,2.6043,2.6044,2.6059,2.6047,2.6057,2.6064,2.6047,2.6064,2.606,2.6064,2.6062,2.6075,2.6057,2.6069,2.6072,2.6076,2.6082,2.5985,2.6076,2.6075,2.6075,2.6075,2.6075,0,2.6123,2.6117,2.6127,2.6129,2.6138,2.6112,2.6112,2.6121,2.6136,2.6134,2.6141,2.6156,2.6166,2.6153,2.6161,2.6174,2.6163,2.6177,2.6177,2.6176,2.6097,2.6089,2.6186,2.6186,2.6186,2.6186,2.6186,2.6186,2.6177,2.6205,2.6193,2.6219,2.6212,2.6229,2.623,2.6231,2.6229,2.6247,2.6255,2.6246,2.6239,2.6246,2.6254,2.625,2.6255,2.6274,2.6266,2.6192,2.6182,2.6171,2.6164,2.6275,2.6275,2.6343,2.6344,2.6345]}]]